Bow Valley, Alberta

10:42 PM MST on November 22, 2017 (GMT -0700)
Bow Valley

Weather History for CWXA - November, 2013

Change the Weather History Date:

Monday, November 11, 2013

  Actual Average Record
Temperature  
Mean Temperature 18 °F -  
Max Temperature 34 °F - - ()
Min Temperature 1 °F - - ()
Degree Days  
Heating Degree Days 48    
Moisture  
Dew Point 12 °F    
Average Humidity 59    
Maximum Humidity 86    
Minimum Humidity 33    
Precipitation  
Precipitation 0.00 in - - ()
Sea Level Pressure  
Sea Level Pressure 30.41 in    
Wind  
Wind Speed 9 mph ()    
Max Wind Speed 15 mph    
Max Gust Speed 28 mph    
T = Trace of Precipitation, MM = Missing Value Source: Averaged Metar Reports

Daily Weather History Graph

Daily Weather History Graph

Search for Another Location

Airport or City:

Trip Planner

Search our weather history database for the weather conditions in past years. The results will help you decide how hot, cold, wet, or windy it might be!

Date:

Astronomy

Nov. 11, 2013 Rise Set
Actual Time 7:50 AM MST 4:57 PM MST
Civil Twilight 7:14 AM MST 5:33 PM MST
Nautical Twilight 6:34 AM MST 6:13 PM MST
Astronomical Twilight 5:55 AM MST 6:52 PM MST
Moon 2:16 PM MST (11/11) 1:00 AM MST (11/11)
Length of Visible Light 10h 18m
Length of Day
9h 06m
Waxing Gibbous, 67% of the Moon is Illuminated
Nov 11
Waxing Gibbous
Nov 17
Full
Nov 25
Last Quarter
Dec 2
New
Dec 9
First Quarter

Hourly Weather History & Observations

Time (MST) Temp. Windchill Dew Point Humidity Pressure Visibility Wind Dir Wind Speed Gust Speed Precip Events Conditions
12:00 AM 19.2 °F 8.4 °F 15.6 °F 86% 30.41 in - WSW 9.2 mph - N/A   Unknown
1:00 AM 19.6 °F 8.9 °F 14.9 °F 82% 30.42 in - WSW 9.2 mph 18.4 mph N/A   Unknown
2:00 AM 18.9 °F 8.8 °F 13.6 °F 80% 30.41 in - WSW 8.1 mph - N/A   Unknown
3:00 AM 19.0 °F 9.0 °F 13.5 °F 79% 30.41 in - SW 8.1 mph 19.6 mph N/A   Unknown
4:00 AM 19.0 °F 9.0 °F 12.9 °F 77% 30.43 in - SW 8.1 mph 18.4 mph N/A   Unknown
5:00 AM 18 °F - 12 °F 68% 30.45 in - SW 10.4 mph - -  
5:00 AM 18.5 °F 6.8 °F 12.0 °F 76% 30.45 in - SW 10.4 mph 20.7 mph N/A   Unknown
6:00 AM 17.8 °F 6.6 °F 11.3 °F 76% 30.46 in - WSW 9.2 mph 18.4 mph N/A   Unknown
7:00 AM 17.2 °F 5.2 °F 10.6 °F 75% 30.49 in - SW 10.4 mph 20.7 mph N/A   Unknown
8:00 AM 18.0 °F 6.9 °F 10.4 °F 72% 30.50 in - SW 9.2 mph 23.0 mph N/A   Unknown
9:00 AM 18.5 °F 7.5 °F 10.2 °F 70% 30.49 in - SSW 9.2 mph 24.2 mph N/A   Unknown
10:00 AM 20.8 °F 9.7 °F 10.6 °F 65% 30.42 in - SW 10.4 mph 24.2 mph N/A   Unknown
11:00 AM 23 °F - 11 °F 46% 30.44 in - SW 11.5 mph - -  
11:00 AM 23.2 °F 12.0 °F 10.9 °F 60% 30.44 in - SW 11.5 mph 23.0 mph N/A   Unknown
12:00 PM 27.5 °F 18.0 °F 11.1 °F 50% 30.43 in - SW 10.4 mph 23.0 mph N/A   Unknown
1:00 PM 31.3 °F 22.1 °F 11.7 °F 44% 30.41 in - SW 11.5 mph 20.7 mph N/A   Unknown
2:00 PM 32.9 °F 24.1 °F 12.0 °F 42% 30.39 in - WSW 11.5 mph 24.2 mph N/A   Unknown
3:00 PM 33.1 °F 23.9 °F 12.7 °F 43% 30.38 in - WSW 12.7 mph 23.0 mph N/A   Unknown
4:00 PM 33.4 °F 24.8 °F 11.3 °F 40% 30.37 in - WSW 11.5 mph 23.0 mph N/A   Unknown
5:00 PM 31 °F - 13 °F 33% 30.37 in - WSW 11.5 mph - -  
5:00 PM 30.9 °F 21.7 °F 12.9 °F 47% 30.37 in - WSW 11.5 mph 18.4 mph N/A   Unknown
6:00 PM 31.3 °F 22.1 °F 12.4 °F 46% 30.38 in - WSW 11.5 mph 23.0 mph N/A   Unknown
7:00 PM 30.7 °F 22.0 °F 12.0 °F 46% 30.38 in - WSW 10.4 mph 19.6 mph N/A   Unknown
8:00 PM 30.0 °F 19.1 °F 13.5 °F 50% 30.38 in - WSW 15.0 mph 27.6 mph N/A   Unknown
9:00 PM 29.1 °F 18.9 °F 12.9 °F 51% 30.36 in - WSW 12.7 mph 27.6 mph N/A   Unknown
10:00 PM 28.4 °F 17.0 °F 13.1 °F 53% 30.36 in - WSW 15.0 mph 27.6 mph N/A   Unknown
11:00 PM 29 °F - 13 °F 37% 30.34 in - WSW 11.5 mph - -  
11:00 PM 28.9 °F 19.2 °F 13.1 °F 52% 30.34 in - WSW 11.5 mph 24.2 mph N/A   Unknown